CW4114 Weather Reports


Display with metric or nautical units.
time (UTC)temp
F
wind
direction
speed
MPH
gust
MPH
rain 1hr
in
rain 24hr
in
rain mn
in
humidity
%
barometer
mb
20221207030337 37 199 2.0 6.0 0.00 0.00 0.00 96 1018.1
20221207030111 37 185 3.0 6.0 0.00 0.00 0.00 96 1018.0
20221207025329 37 184 3.0 6.0 0.00 0.00 0.00 96 1018.0
20221207024830 37 205 3.0 11.0 0.00 0.00 0.00 96 1018.2
20221207024330 37 166 4.0 11.0 0.00 0.00 0.00 96 1018.2
20221207023831 37 163 5.0 11.0 0.00 0.00 0.00 96 1018.3
20221207023606 37 145 6.0 11.0 0.00 0.00 0.00 96 1018.2
20221207022829 37 174 6.0 11.0 0.00 0.00 0.00 96 1018.2
20221207022325 37 126 6.0 12.0 0.00 0.00 0.00 96 1018.3
20221207022101 37 139 5.0 10.0 0.00 0.00 0.00 96 1018.2
20221207021322 36 124 5.0 10.0 0.00 0.00 0.00 96 1018.3
20221207020821 36 120 5.0 10.0 0.00 0.00 0.00 96 1018.3
20221207020321 36 124 6.0 12.0 0.00 0.00 0.00 96 1018.2
20221207015822 36 114 5.0 12.0 0.00 0.00 0.00 96 1018.1
20221207015321 36 102 5.0 10.0 0.00 0.00 0.00 96 1018.1
20221207014817 36 139 5.0 10.0 0.00 0.00 0.00 96 1018.1
20221207014310 36 156 6.0 13.0 0.00 0.00 0.00 96 1018.1
20221207013809 35 174 5.0 13.0 0.00 0.00 0.00 96 1018.0
20221207013306 35 155 5.0 11.0 0.00 0.00 0.00 96 1018.1
20221207012805 35 135 7.0 12.0 0.00 0.00 0.00 96 1018.1
20221207012607 35 147 6.0 14.0 0.00 0.00 0.00 96 1018.1
20221207010804 35 136 5.0 13.0 0.00 0.00 0.00 95 1018.1
20221207010304 35 127 7.0 15.0 0.00 0.00 0.00 95 1018.3
20221207005805 35 139 7.0 15.0 0.00 0.00 0.00 95 1018.4
20221207005306 35 125 6.0 13.0 0.00 0.00 0.00 95 1018.5
20221207004803 35 125 7.0 13.0 0.00 0.00 0.00 95 1018.5
20221207004303 35 127 7.0 14.0 0.00 0.00 0.00 95 1018.5
20221207003804 35 134 7.0 14.0 0.00 0.00 0.00 95 1018.5
20221207003254 35 118 8.0 16.0 0.00 0.00 0.00 95 1018.7
20221207002750 34 137 7.0 16.0 0.00 0.00 0.00 95 1018.8
20221207002244 34 120 6.0 14.0 0.00 0.00 0.00 95 1018.8
20221207001744 34 126 7.0 13.0 0.00 0.00 0.00 95 1018.8
20221207001244 34 101 8.0 15.0 0.00 0.00 0.00 95 1019.0
20221207000743 34 130 8.0 15.0 0.00 0.00 0.00 95 1019.0
20221207000235 34 131 7.0 13.0 0.00 0.00 0.00 95 1019.0
20221206235732 34 127 7.0 14.0 0.00 0.00 0.00 95 1019.1
20221206235232 34 156 7.0 15.0 0.00 0.00 0.00 95 1019.1
20221206234732 35 126 7.0 15.0 0.00 0.00 0.00 95 1019.1
20221206234510 35 122 8.0 14.0 0.00 0.00 0.00 95 1019.1
20221206233731 35 113 8.0 15.0 0.00 0.00 0.00 94 1019.0
20221206233232 35 114 7.0 15.0 0.00 0.00 0.00 94 1019.1
20221206232731 35 103 6.0 12.0 0.00 0.00 0.00 94 1019.1
20221206232232 35 179 6.0 11.0 0.00 0.00 0.00 94 1019.1
20221206232018 35 125 6.0 12.0 0.00 0.00 0.00 94 1019.1
20221206231521 35 97 6.0 12.0 0.00 0.00 0.00 94 1019.3
20221206230229 35 136 6.0 12.0 0.00 0.00 0.00 94 1019.2
20221206230012 35 142 5.0 12.0 0.00 0.00 0.00 94 1019.2
20221206225223 35 114 4.0 12.0 0.00 0.00 0.00 94 1019.3
20221206224721 35 127 5.0 12.0 0.00 0.00 0.00 94 1019.2
20221206224214 35 142 5.0 12.0 0.00 0.00 0.00 94 1019.0
20221206223715 35 110 5.0 12.0 0.00 0.00 0.00 93 1019.1
20221206223210 35 177 5.0 10.0 0.00 0.00 0.00 93 1019.1
20221206222704 35 120 5.0 12.0 0.00 0.00 0.00 93 1019.2
20221206222437 35 159 4.0 12.0 0.00 0.00 0.00 93 1019.2
20221206221702 35 118 4.0 12.0 0.00 0.00 0.00 92 1019.3
20221206221203 35 142 5.0 13.0 0.00 0.00 0.00 92 1019.2
20221206220701 35 151 5.0 13.0 0.00 0.00 0.00 92 1019.0
20221206220442 35 140 4.0 12.0 0.00 0.00 0.00 92 1019.1
20221206215702 35 123 4.0 9.0 0.00 0.00 0.00 92 1019.3
20221206215440 35 149 5.0 10.0 0.00 0.00 0.00 92 1019.2
20221206214704 35 140 6.0 11.0 0.00 0.00 0.00 91 1019.1
20221206214438 35 120 6.0 12.0 0.00 0.00 0.00 91 1019.1
20221206213702 35 125 5.0 12.0 0.00 0.00 0.00 91 1019.1
20221206213203 35 115 5.0 12.0 0.00 0.00 0.00 91 1019.2
20221206212703 35 153 6.0 12.0 0.00 0.00 0.00 91 1019.3
20221206212204 35 137 6.0 11.0 0.00 0.00 0.00 91 1019.3
20221206211703 36 132 6.0 11.0 0.00 0.00 0.00 91 1019.2
20221206211204 36 130 6.0 11.0 0.00 0.00 0.00 91 1019.2
20221206210702 35 137 6.0 12.0 0.00 0.00 0.00 90 1019.2
20221206210202 35 138 6.0 12.0 0.00 0.00 0.00 90 1019.3
20221206205701 35 96 6.0 12.0 0.00 0.00 0.00 90 1019.1
20221206205201 35 106 7.0 12.0 0.00 0.00 0.00 91 1019.0
20221206204941 35 123 5.0 11.0 0.00 0.00 0.00 91 1018.8
20221206204203 35 118 5.0 11.0 0.00 0.00 0.00 91 1018.7
20221206203704 35 143 6.0 12.0 0.00 0.00 0.00 91 1018.7
20221206203437 35 109 6.0 12.0 0.00 0.00 0.00 91 1018.7
20221206202702 35 110 7.0 14.0 0.00 0.00 0.00 91 1018.6
20221206202201 35 134 7.0 14.0 0.00 0.00 0.00 91 1018.7
20221206201942 36 120 6.0 13.0 0.00 0.00 0.00 91 1018.8
20221206201202 36 108 6.0 12.0 0.00 0.00 0.00 90 1018.8
20221206200702 36 116 6.0 12.0 0.00 0.00 0.00 90 1018.8
20221206200205 36 124 6.0 12.0 0.00 0.00 0.00 90 1018.6
20221206195703 36 72 6.0 12.0 0.00 0.00 0.00 89 1018.7
20221206195203 36 133 6.0 12.0 0.00 0.00 0.00 88 1018.6
20221206194943 36 102 6.0 12.0 0.00 0.00 0.00 88 1018.8
20221206194204 36 141 5.0 11.0 0.00 0.00 0.00 87 1018.7
20221206193703 36 155 4.0 8.0 0.00 0.00 0.00 86 1018.7
20221206193203 37 143 4.0 9.0 0.00 0.00 0.00 86 1018.6
20221206192939 37 117 5.0 9.0 0.00 0.00 0.00 86 1018.7
20221206192202 37 134 4.0 9.0 0.00 0.00 0.00 86 1018.6
20221206191702 37 112 5.0 11.0 0.00 0.00 0.00 86 1018.4
20221206191202 37 109 5.0 11.0 0.00 0.00 0.00 85 1018.3
20221206190702 37 94 4.0 8.0 0.00 0.00 0.00 84 1018.5
20221206190202 37 170 4.0 8.0 0.00 0.00 0.00 84 1018.7
20221206185651 37 141 4.0 8.0 0.00 0.00 0.00 84 1018.9
20221206185148 37 113 4.0 7.0 0.00 0.00 0.00 85 1018.7
20221206184644 37 146 4.0 9.0 0.00 0.00 0.00 85 1018.6
20221206184420 37 130 3.0 9.0 0.00 0.00 0.00 85 1018.7
20221206183644 37 146 4.0 9.0 0.00 0.00 0.00 85 1018.6
20221206183136 36 113 4.0 9.0 0.00 0.00 0.00 85 1018.8
20221206182636 36 88 4.0 7.0 0.00 0.00 0.00 85 1018.8
20221206182136 36 136 3.0 7.0 0.00 0.00 0.00 84 1018.8
20221206181634 36 137 3.0 7.0 0.00 0.00 0.00 84 1018.8
20221206181132 36 134 4.0 7.0 0.00 0.00 0.00 84 1018.9
20221206180631 36 125 4.0 7.0 0.00 0.00 0.00 84 1018.9
20221206180131 36 111 4.0 7.0 0.00 0.00 0.00 83 1018.9
20221206175631 36 120 3.0 7.0 0.00 0.00 0.00 83 1019.1
20221206175131 36 124 3.0 7.0 0.00 0.00 0.00 84 1019.1
20221206174630 36 120 2.0 6.0 0.00 0.00 0.00 84 1019.3
20221206174131 36 142 2.0 5.0 0.00 0.00 0.00 84 1019.5
20221206173631 36 118 3.0 7.0 0.00 0.00 0.00 84 1019.5
20221206173410 36 82 4.0 7.0 0.00 0.00 0.00 84 1019.6
20221206172629 36 101 4.0 6.0 0.00 0.00 0.00 84 1019.5
20221206172120 36 92 4.0 6.0 0.00 0.00 0.00 84 1019.6
20221206171611 36 117 4.0 6.0 0.00 0.00 0.00 84 1019.7
20221206171108 36 103 4.0 6.0 0.00 0.00 0.00 84 1019.6
20221206170841 36 110 3.0 7.0 0.00 0.00 0.00 84 1019.7
20221206170341 36 99 3.0 7.0 0.00 0.00 0.00 84 1019.7
20221206165831 36 103 3.0 6.0 0.00 0.00 0.00 84 1019.9
20221206165050 36 139 2.0 6.0 0.00 0.00 0.00 84 1019.9
20221206164547 36 80 2.0 6.0 0.00 0.00 0.00 84 1020.0
20221206164047 36 134 2.0 6.0 0.00 0.00 0.00 84 1019.9
20221206163546 36 79 2.0 6.0 0.00 0.00 0.00 84 1019.8
20221206163046 36 83 3.0 6.0 0.00 0.00 0.00 84 1019.9
20221206162546 35 92 3.0 6.0 0.00 0.00 0.00 84 1019.9
20221206162035 35 96 3.0 5.0 0.00 0.00 0.00 84 1019.7
20221206161535 35 103 3.0 6.0 0.00 0.00 0.00 84 1019.7
20221206161032 35 78 3.0 7.0 0.00 0.00 0.00 84 1019.8
20221206160530 35 119 3.0 7.0 0.00 0.00 0.00 84 1019.7
20221206160031 35 99 2.0 4.0 0.00 0.00 0.00 84 1019.7
20221206155809 35 99 1.0 4.0 0.00 0.00 0.00 84 1019.7
20221206155031 35 37 1.0 5.0 0.00 0.00 0.00 85 1019.8
20221206154531 35 98 1.0 5.0 0.00 0.00 0.00 85 1019.9
20221206154032 35 77 3.0 6.0 0.00 0.00 0.00 85 1019.8
20221206153531 35 83 3.0 6.0 0.00 0.00 0.00 85 1019.5
20221206153032 35 93 3.0 6.0 0.00 0.00 0.00 85 1019.1
20221206152530 35 103 2.0 6.0 0.00 0.00 0.00 84 1019.1
20221206152031 35 104 3.0 6.0 0.00 0.00 0.00 84 1019.1
20221206151530 35 118 3.0 6.0 0.00 0.00 0.00 84 1019.1
20221206151031 35 115 3.0 6.0 0.00 0.00 0.00 84 1019.0
20221206150533 35 91 4.0 7.0 0.00 0.00 0.00 84 1019.0
20221206150306 35 80 4.0 7.0 0.00 0.00 0.00 84 1018.9
20221206145530 35 100 4.0 7.0 0.00 0.00 0.00 84 1019.0
20221206145112 35 102 3.0 8.0 0.00 0.00 0.00 84 1018.8
20221206144523 35 92 3.0 8.0 0.00 0.00 0.00 84 1018.7
20221206144020 35 41 3.0 6.0 0.00 0.00 0.00 84 1018.7
20221206143513 35 120 3.0 7.0 0.00 0.00 0.00 84 1018.8
20221206143010 34 109 2.0 7.0 0.00 0.00 0.00 84 1018.7
20221206142512 34 44 2.0 6.0 0.00 0.00 0.00 84 1018.6
20221206142012 34 68 2.0 6.0 0.00 0.00 0.00 84 1018.6
20221206141509 34 101 2.0 6.0 0.00 0.00 0.00 84 1018.5
20221206141007 34 78 2.0 6.0 0.00 0.00 0.00 84 1018.5
20221206140508 34 71 2.0 6.0 0.00 0.00 0.00 84 1018.4
20221206140005 34 48 2.0 6.0 0.00 0.00 0.00 84 1018.3
20221206135508 34 76 1.0 4.0 0.00 0.00 0.00 84 1018.3
20221206135006 34 78 2.0 4.0 0.00 0.00 0.00 84 1018.3
20221206134504 34 91 2.0 5.0 0.00 0.00 0.00 84 1018.3
20221206134004 34 64 2.0 5.0 0.00 0.00 0.00 84 1018.4
20221206133741 34 79 1.0 4.0 0.00 0.00 0.00 84 1018.5
20221206133002 34 61 1.0 4.0 0.00 0.00 0.00 84 1018.6
20221206132505 34 50 1.0 4.0 0.00 0.00 0.00 84 1018.7
20221206132003 34 21 1.0 4.0 0.00 0.00 0.00 84 1018.7
20221206131503 34 44 1.0 4.0 0.00 0.00 0.00 84 1018.7
20221206131001 34 44 2.0 5.0 0.00 0.00 0.00 84 1018.7
20221206130503 34 48 1.0 5.0 0.00 0.00 0.00 84 1018.6
20221206130001 34 103 1.0 4.0 0.00 0.00 0.00 84 1018.6
20221206125501 34 88 1.0 4.0 0.00 0.00 0.00 84 1018.6
20221206125242 34 99 2.0 5.0 0.00 0.00 0.00 84 1018.6
20221206124502 34 78 2.0 6.0 0.00 0.00 0.00 84 1018.5
20221206124001 34 56 2.0 6.0 0.00 0.00 0.00 84 1018.3
20221206123501 34 28 2.0 4.0 0.00 0.00 0.00 84 1018.2
20221206122958 34 13 2.0 6.0 0.00 0.00 0.00 84 1018.3
20221206122458 34 20 2.0 6.0 0.00 0.00 0.00 85 1018.3
20221206121958 34 28 2.0 5.0 0.00 0.00 0.00 85 1018.1
20221206121458 34 354 1.0 4.0 0.00 0.00 0.00 85 1018.0
20221206120955 34 57 1.0 6.0 0.00 0.00 0.00 85 1017.9
20221206120454 33 30 2.0 6.0 0.00 0.00 0.00 85 1018.0
20221206115951 34 29 2.0 6.0 0.00 0.00 0.00 86 1018.0
20221206115449 34 33 2.0 6.0 0.00 0.00 0.00 86 1017.9
20221206114947 33 43 2.0 5.0 0.00 0.00 0.00 85 1017.8
20221206114447 33 19 2.0 5.0 0.00 0.00 0.00 86 1017.7
20221206113943 33 28 1.0 5.0 0.00 0.00 0.00 86 1017.7
20221206113433 33 38 1.0 4.0 0.00 0.00 0.00 86 1017.6
20221206112933 33 13 2.0 4.0 0.00 0.00 0.00 86 1017.5
20221206112433 33 26 1.0 5.0 0.00 0.00 0.00 86 1017.4
20221206111931 33 89 2.0 5.0 0.00 0.00 0.00 86 1017.4
20221206111435 33 68 2.0 6.0 0.00 0.00 0.00 86 1017.4
20221206110931 33 44 2.0 6.0 0.00 0.00 0.00 86 1017.3
20221206110430 33 28 1.0 6.0 0.00 0.00 0.00 86 1017.3
20221206105932 33 33 2.0 7.0 0.00 0.00 0.00 86 1017.3
20221206105431 33 11 2.0 7.0 0.00 0.00 0.00 86 1017.2
20221206105210 33 50 2.0 5.0 0.00 0.00 0.00 86 1017.2
20221206104431 33 7 2.0 5.0 0.00 0.00 0.00 86 1017.2
20221206103931 33 31 2.0 5.0 0.00 0.00 0.00 86 1017.2
20221206103431 33 4 2.0 5.0 0.00 0.00 0.00 86 1017.1
20221206102931 33 8 1.0 5.0 0.00 0.00 0.00 86 1017.0
20221206102431 33 17 1.0 5.0 0.00 0.00 0.00 86 1017.0
20221206101931 33 348 2.0 5.0 0.00 0.00 0.00 86 1017.0
20221206101431 33 350 2.0 5.0 0.00 0.00 0.00 86 1017.1
20221206100931 33 12 1.0 4.0 0.00 0.00 0.00 86 1017.2
20221206100431 33 48 2.0 5.0 0.00 0.00 0.00 86 1017.1
20221206095934 33 16 3.0 7.0 0.00 0.00 0.00 86 1017.1
20221206095430 33 25 3.0 8.0 0.00 0.00 0.00 87 1016.9
20221206094931 33 31 2.0 8.0 0.00 0.00 0.00 87 1016.7
20221206094431 33 39 2.0 6.0 0.00 0.00 0.00 86 1016.6
20221206093932 34 349 2.0 6.0 0.00 0.00 0.00 86 1016.6
20221206093430 34 54 2.0 6.0 0.00 0.00 0.00 86 1016.6
20221206092931 34 48 2.0 6.0 0.00 0.00 0.00 86 1016.6
20221206092421 34 48 2.0 6.0 0.00 0.00 0.00 85 1016.5
20221206091920 34 9 2.0 5.0 0.00 0.00 0.00 85 1016.5
20221206091426 34 14 2.0 6.0 0.00 0.00 0.00 85 1016.3
20221206090417 34 6 1.0 4.0 0.00 0.00 0.00 85 1016.2
20221206085917 34 8 1.0 5.0 0.00 0.00 0.00 85 1016.3
20221206085415 34 62 2.0 5.0 0.00 0.00 0.00 85 1016.3
20221206084915 34 54 2.0 7.0 0.00 0.00 0.00 85 1016.2
20221206084415 33 63 2.0 7.0 0.00 0.00 0.00 85 1016.3
20221206083915 34 66 2.0 7.0 0.00 0.00 0.00 86 1016.3
20221206083409 33 63 2.0 7.0 0.00 0.00 0.00 86 1016.2
20221206082909 33 29 2.0 6.0 0.00 0.00 0.00 86 1016.0
20221206082405 33 358 3.0 7.0 0.00 0.00 0.00 86 1015.9
20221206082143 33 39 3.0 7.0 0.00 0.00 0.00 87 1015.8
20221206081403 33 44 2.0 6.0 0.00 0.00 0.00 87 1015.8
20221206080903 33 41 2.0 7.0 0.00 0.00 0.00 87 1015.8
20221206080405 33 30 2.0 7.0 0.00 0.00 0.00 87 1015.8
20221206075903 33 44 2.0 7.0 0.00 0.00 0.00 88 1015.7
20221206075639 33 359 3.0 7.0 0.00 0.00 0.00 88 1015.6
20221206075142 33 59 3.0 7.0 0.00 0.00 0.00 88 1015.5
20221206074401 33 44 3.0 7.0 0.00 0.00 0.00 88 1015.5
20221206073902 33 83 2.0 8.0 0.00 0.00 0.00 89 1015.4
20221206073401 33 118 2.0 8.0 0.00 0.00 0.00 89 1015.2
20221206072904 33 36 2.0 7.0 0.00 0.00 0.00 89 1015.3
20221206072404 33 44 2.0 7.0 0.00 0.00 0.00 89 1015.1
20221206071903 33 33 3.0 7.0 0.00 0.00 0.00 89 1015.2
20221206071642 33 72 3.0 7.0 0.00 0.00 0.00 89 1015.1
20221206070903 33 44 3.0 8.0 0.00 0.00 0.00 89 1015.1
20221206070402 33 29 3.0 8.0 0.00 0.00 0.00 88 1014.7
20221206070138 33 16 2.0 7.0 0.00 0.00 0.00 87 1014.6
20221206065402 33 36 2.0 7.0 0.00 0.00 0.00 86 1014.6
20221206064902 34 332 2.0 7.0 0.00 0.00 0.00 85 1014.5
20221206064401 34 10 2.0 6.0 0.00 0.00 0.00 84 1014.5
20221206063902 33 27 2.0 6.0 0.00 0.00 0.00 84 1014.4
20221206063643 33 37 2.0 6.0 0.00 0.00 0.00 84 1014.4
20221206062902 33 61 1.0 6.0 0.00 0.00 0.00 86 1014.4
20221206062403 33 327 1.0 4.0 0.00 0.00 0.00 86 1014.5
20221206061905 33 313 1.0 4.0 0.00 0.00 0.00 86 1014.6
20221206061403 33 279 1.0 4.0 0.00 0.00 0.00 86 1014.5
20221206060903 33 277 2.0 4.0 0.00 0.00 0.00 86 1014.6
20221206060403 33 291 2.0 4.0 0.00 0.00 0.00 86 1014.6
20221206055904 33 299 2.0 4.0 0.00 0.00 0.00 86 1014.6
20221206055402 34 314 1.0 2.0 0.00 0.00 0.00 85 1014.4
20221206055141 34 288 2.0 3.0 0.00 0.00 0.00 85 1014.4
20221206054636 34 277 2.0 3.0 0.00 0.00 0.00 85 1014.4
20221206053901 34 262 1.0 3.0 0.00 0.00 0.00 84 1014.4
20221206053401 34 35 1.0 4.0 0.00 0.00 0.00 84 1014.3
20221206052902 34 282 2.0 4.0 0.00 0.00 0.00 84 1014.4
20221206052402 34 268 2.0 4.0 0.00 0.00 0.00 84 1014.4
20221206051902 34 333 2.0 4.0 0.00 0.00 0.00 84 1014.5
20221206051402 34 253 1.0 4.0 0.00 0.00 0.00 84 1014.4
20221206051139 34 1 2.0 5.0 0.00 0.00 0.00 84 1014.4
20221206050344 34 266 2.0 5.0 0.00 0.00 0.00 84 1014.3
20221206045837 34 260 2.0 5.0 0.00 0.00 0.00 85 1014.3
20221206045332 33 264 2.0 4.0 0.00 0.00 0.00 85 1014.2
20221206044832 33 262 2.0 4.0 0.00 0.00 0.00 85 1014.0
20221206044332 33 268 2.0 4.0 0.00 0.00 0.00 85 1013.9
20221206043842 33 253 2.0 4.0 0.00 0.00 0.00 85 1013.8
20221206043109 33 265 2.0 5.0 0.00 0.00 0.00 85 1013.8
20221206042331 33 267 2.0 5.0 0.00 0.00 0.00 85 1013.8
20221206041832 33 273 2.0 3.0 0.00 0.00 0.00 85 1013.8
20221206041330 33 281 2.0 3.0 0.00 0.00 0.00 85 1013.7
20221206040831 33 251 2.0 4.0 0.00 0.00 0.00 85 1013.6
20221206040330 33 281 2.0 4.0 0.00 0.00 0.00 85 1013.6
20221206035831 33 284 2.0 4.0 0.00 0.00 0.00 85 1013.5
20221206035331 33 279 2.0 4.0 0.00 0.00 0.00 85 1013.3
20221206034831 33 266 2.0 3.0 0.00 0.00 0.00 85 1013.2
20221206034332 33 277 1.0 3.0 0.00 0.00 0.00 85 1013.1
20221206033833 33 294 1.0 3.0 0.00 0.00 0.00 85 1013.1
20221206033332 33 266 1.0 3.0 0.00 0.00 0.00 86 1013.0
20221206032832 33 263 1.0 3.0 0.00 0.00 0.00 86 1013.0
20221206032332 33 270 2.0 3.0 0.00 0.00 0.00 86 1013.0
20221206031832 33 264 1.0 3.0 0.00 0.00 0.00 86 1012.8
20221206031330 33 265 1.0 4.0 0.00 0.00 0.00 87 1012.8
20221206030832 33 262 2.0 4.0 0.00 0.00 0.00 87 1012.8